SCP
0 0 0 0 0 0 0 0 0 0 0 0 0 0 0 0 0 0 0 -0 -0 -0 0 0 0 0 0 0 0 1 1 1 1 1 1 1 1 1 1 0 0 0 1
0 0 0 0 0 0 0 0 0 0 0 0 0 0 0 0 0 0 0 0 -0 -0 -0 0 0 0 0 0 0 1 1 1 1 1 1 1 1 0 1 1 1 0 0
0 0 0 1 1 1 0 0 0 0 0 0 0 0 0 0 0 0 0 0 0 -0 -0 0 0 0 0 0 0 0 1 1 1 1 1 1 1 1 1 1 1 1 0
1 1 1 1 1 1 1 1 1 1 1 0 0 0 0 0 0 0 0 0 0 0 0 0 0 0 0 0 0 0 1 1 1 1 1 1 1 0 0 1 1 1 0
1 1 1 2 1 1 1 1 1 1 1 1 1 1 1 0 0 0 0 0 0 0 0 0 0 0 0 0 0 0 0 1 1 1 1 1 0 0 0 0 1 1 1
1 1 1 1 1 1 1 1 1 1 1 1 1 0 0 0 0 0 0 0 0 0 0 0 0 0 0 0 0 0 0 1 1 1 1 1 0 0 0 0 1 1 1
0 1 0 0 1 1 1 1 1 1 1 0 0 0 0 0 0 0 0 0 0 0 0 0 0 0 0 0 1 1 0 1 1 1 1 1 1 1 0 0 0 1 1
0 0 0 0 1 1 0 0 0 0 0 0 0 0 0 0 0 0 0 0 0 0 0 0 0 0 0 1 1 0 2 1 0 1 1 1 1 1 1 1 1 1 1
0 0 0 0 0 0 0 0 0 0 0 0 0 0 0 0 0 0 0 0 0 0 0 0 0 0 0 0 0 1 1 1 1 1 1 1 1 1 1 1 0 0 0
0 0 0 0 0 0 0 0 0 0 0 0 0 0 0 0 0 0 0 0 0 0 0 0 0 0 0 0 0 0 0 0 1 1 1 1 1 1 1 0 0 0 0
0 0 0 0 0 0 0 0 0 0 0 0 0 0 0 0 0 0 0 0 0 0 0 0 0 0 0 0 0 0 0 0 1 1 0 0 0 1 0 0 0 0 0
0 0 0 0 0 0 0 0 0 0 0 0 0 0 0 0 0 0 0 0 0 0 0 0 0 0 0 0 0 0 0 0 0 0 0 0 0 0 0 0 0 0 0
0 0 0 0 0 0 0 0 0 0 0 0 0 0 0 0 0 0 0 0 0 0 0 0 0 0 0 0 0 0 0 0 0 0 0 0 0 0 0 0 0 0 0
0 0 0 -0 -0 -0 0 0 0 0 0 0 0 0 0 0 0 0 0 0 0 0 0 0 0 0 0 0 0 0 0 0 0 0 0 0 0 0 0 0 0 0 1
0 0 -0 -0 -0 -0 -0 0 0 0 0 0 0 0 0 -0 0 0 0 0 0 0 0 0 0 0 0 0 0 0 0 0 0 0 0 0 0 0 0 0 0 0 0
0 -0 0 0 -0 -0 0 0 0 0 0 0 0 0 0 -0 0 0 0 0 0 0 0 0 -0 0 0 0 0 0 0 0 0 0 0 0 0 0 0 0 0 0 0
0 0 0 -0 -0 -0 0 0 0 0 0 0 0 0 0 -0 -0 0 -0 0 0 0 -0 0 0 0 0 0 0 0 0 0 0 -0 0 0 0 0 0 0 0 0 0
0 -0 0 0 0 0 0 0 0 0 0 0 0 0 0 0 -0 -0 0 -0 -0 0 -0 -0 0 0 0 0 0 0 0 0 0 -0 -0 0 0 0 0 0 0 0 0
0 0 0 -0 0 0 0 0 0 0 0 -0 -0 0 0 0 0 -0 0 0 0 0 -0 0 0 0 0 0 0 0 0 0 0 -0 -0 0 -0 -0 0 0 0 0 0
0 0 0 0 0 0 0 0 0 0 0 -0 -0 0 -0 0 -0 -0 -0 0 0 0 0 0 0 0 0 0 0 0 0 0 0 0 -0 -0 -0 -0 -0 -0 0 0 0
0 0 0 0 0 0 0 0 0 0 0 0 -0 -0 0 -0 -0 -0 -0 -0 0 0 0 0 0 0 0 0 0 0 0 0 0 0 0 0 0 0 0 0 0 -0 0
0 0 0 0 0 0 0 0 0 0 0 0 0 0 0 0 -0 0 -0 -0 0 0 0 0 0 0 0 0 0 0 0 0 0 0 0 0 0 0 0 0 0 -0 -0
0 0 0 0 0 0 0 0 0 0 0 0 0 0 0 0 0 -0 -0 0 -0 -0 -0 0 0 0 0 0 0 0 0 0 0 0 0 0 0 0 0 0 -0 -0 -0
0 0 0 0 0 0 0 0 0 0 0 0 0 0 0 0 0 0 0 0 0 0 0 0 0 0 0 0 0 0 0 0 0 0 0 0 0 0 0 0 -0 -0 -0
0 0 0 0 0 0 0 0 0 0 0 0 0 0 0 0 0 0 0 0 -0 0 0 0 -0 0 0 0 0 0 0 0 0 -0 -0 0 0 0 0 0 0 0 -0
0 0 0 0 0 0 0 0 0 0 0 0 0 0 0 0 0 0 0 0 0 0 0 0 0 0 0 0 0 0 0 0 0 0 0 -0 0 0 0 0 0 0 0
Wind_Speed_500mb
37 34 26 22 23 23 21 22 24 26 26 25 24 23 24 23 24 25 30 44 60 57 48 46 38 43 55 57 56 55 51 48 44 40 35 29 31 34 39 42 39 37 40
30 27 31 22 22 22 23 26 28 31 32 34 34 34 28 31 32 30 34 39 56 63 60 49 46 42 48 60 61 58 59 57 52 46 40 33 30 33 38 44 44 42 41
28 29 30 26 26 32 37 31 31 31 31 38 40 39 37 37 33 35 35 39 38 43 53 60 48 47 46 53 65 63 62 64 58 53 45 36 31 28 33 42 45 46 44
26 25 25 31 28 35 32 30 31 32 37 41 41 39 38 38 40 41 44 45 46 41 42 41 58 47 47 52 62 68 65 69 65 57 52 41 35 29 32 34 42 47 47
32 36 30 33 40 29 29 32 27 30 34 39 38 39 38 37 42 49 50 49 44 35 37 38 48 49 37 48 59 70 68 68 71 61 56 48 39 30 27 31 32 36 47
30 33 24 30 32 31 28 28 33 29 28 32 36 41 44 46 43 46 44 43 40 37 36 33 34 28 37 42 51 63 64 66 67 65 61 54 46 37 31 28 28 34 35
26 29 25 30 23 23 18 17 20 27 27 29 36 48 49 48 46 39 29 31 30 32 30 27 25 23 23 32 34 50 60 58 66 68 63 60 55 45 38 33 31 38 40
25 22 23 20 23 23 27 21 25 30 35 37 38 43 48 37 23 7 16 30 35 32 33 35 21 26 28 28 22 34 57 50 57 63 62 62 61 51 44 35 34 33 41
25 27 26 26 27 26 28 29 29 30 32 32 30 31 26 17 24 30 24 31 34 30 25 17 22 30 32 28 20 19 43 57 59 57 62 67 62 56 49 46 43 40 43
29 28 26 24 23 21 22 24 26 27 26 26 24 19 21 29 25 26 24 21 27 26 26 23 23 24 27 32 21 28 28 46 55 59 58 59 61 54 48 50 50 50 50
31 31 31 30 27 24 23 22 23 22 21 25 22 26 25 24 24 21 25 27 27 24 25 28 28 29 31 34 25 19 20 35 37 38 49 47 49 47 51 53 54 52 51
29 33 32 32 30 27 27 26 26 23 21 19 20 22 24 25 25 17 19 25 28 30 20 23 21 28 25 38 37 22 20 23 30 37 41 43 44 51 54 52 51 47 47
34 37 37 35 32 32 31 31 29 28 28 27 28 26 27 26 24 24 24 24 25 20 19 15 21 17 18 21 30 23 26 22 28 36 40 42 45 47 48 47 47 48 48
32 35 33 31 31 31 32 31 28 24 28 31 32 29 32 26 23 20 20 19 21 17 15 10 13 14 13 14 13 15 24 24 25 29 33 40 41 43 44 43 46 48 49
30 29 29 30 32 33 36 36 28 34 39 40 42 36 37 26 23 18 17 15 14 11 8 10 10 21 5 3 8 14 10 17 25 27 31 30 33 36 40 45 42 42 41
30 28 32 36 37 41 38 37 35 31 30 31 33 32 26 27 24 21 17 15 12 12 7 10 15 18 5 8 6 8 11 15 22 25 27 28 29 36 41 45 45 44 40
30 30 34 36 39 36 34 28 30 27 30 30 31 27 19 20 16 14 10 10 11 8 4 4 8 8 10 12 8 7 9 13 14 18 19 23 25 29 33 40 43 47 45
27 30 39 36 37 33 32 33 33 28 35 36 37 26 12 5 7 9 9 7 4 2 7 12 10 7 7 5 5 2 7 11 11 13 10 25 14 16 22 27 37 42 45
30 36 40 39 30 35 35 36 30 28 31 36 37 33 21 8 2 11 9 5 1 7 10 10 11 8 8 13 16 18 19 15 27 31 20 6 13 13 13 13 21 38 44
34 37 35 37 29 34 35 35 34 34 33 31 30 33 24 15 15 14 8 6 9 12 14 13 12 12 12 12 12 25 15 32 44 74 74 58 27 28 23 21 26 35 42
34 37 36 38 31 31 35 36 33 32 35 31 31 29 27 20 18 20 20 18 14 14 12 15 16 16 17 18 24 21 13 17 17 31 65 62 68 58 38 33 28 31 36
33 32 41 43 38 30 30 33 31 35 39 39 35 30 27 27 25 25 17 14 15 16 15 17 18 26 28 33 34 31 39 40 42 36 45 51 56 60 67 68 56 35 31
30 32 42 42 37 33 31 32 28 32 37 43 39 34 34 29 24 19 19 20 19 20 24 25 20 15 15 19 12 16 22 36 43 43 46 49 49 53 50 49 50 51 61
32 31 41 41 36 34 33 31 26 28 31 36 38 38 40 40 33 30 31 32 27 24 19 12 10 13 14 22 17 20 20 27 32 35 33 54 46 52 47 46 41 44 40
27 26 38 37 36 32 33 31 34 36 42 46 43 45 38 45 50 45 41 43 40 35 37 28 23 23 27 24 35 35 28 27 30 29 27 48 45 49 49 51 48 38 40
22 19 30 35 37 36 32 29 34 31 33 33 42 41 38 34 33 28 22 20 27 20 27 32 37 41 38 30 23 19 13 16 19 19 22 34 28 30 37 37 35 41 46
Wind_Direction_500mb
290 300 297 276 266 263 270 266 275 272 271 274 273 275 280 291 295 307 310 312 317 316 311 299 284 269 255 249 243 239 232 229 233 240 240 243 252 246 241 238 232 232 229
285 280 293 274 269 275 274 266 272 267 274 274 275 275 278 285 287 289 297 307 311 310 306 300 289 276 262 249 246 240 234 228 230 232 232 238 247 243 242 240 236 231 229
290 287 289 282 279 284 286 282 279 272 273 275 274 277 281 283 283 288 296 301 300 303 305 302 293 284 269 256 241 240 236 228 228 230 229 233 241 248 239 236 235 234 232
307 292 283 281 280 289 287 283 281 272 273 275 279 279 277 278 283 286 297 295 293 292 286 297 291 290 278 258 243 234 233 232 228 229 226 230 236 245 241 237 234 234 234
307 296 297 291 290 287 279 281 270 274 278 278 280 277 276 276 279 285 289 289 289 287 284 285 290 297 292 265 247 233 228 232 229 230 224 226 231 235 235 235 237 234 233
308 308 314 299 301 295 295 284 286 277 279 284 281 283 285 281 281 290 292 285 283 278 285 278 286 293 290 279 254 238 232 230 229 228 226 224 227 228 235 237 239 240 239
326 315 310 316 322 323 314 313 300 297 294 294 290 290 290 288 278 283 285 286 285 278 277 281 287 284 281 275 266 243 233 232 229 227 226 223 227 230 236 243 249 246 242
348 351 342 334 322 312 309 308 309 301 291 294 295 295 293 290 288 288 258 286 282 275 267 268 279 283 288 281 272 238 229 227 227 225 224 223 226 229 235 240 247 253 249
345 340 335 328 322 321 302 304 299 294 294 289 288 286 297 291 298 287 280 282 279 269 264 276 286 286 280 280 278 243 223 222 214 216 217 218 224 229 232 243 252 256 254
345 350 349 344 338 338 317 316 307 294 296 291 289 288 286 290 294 296 284 292 283 288 278 273 269 282 285 277 274 254 225 215 218 222 220 216 221 225 237 248 255 257 253
357 358 1 358 353 351 341 340 336 318 304 292 298 295 290 294 297 281 291 301 305 299 281 273 277 268 276 259 269 262 216 213 206 219 227 225 221 237 248 254 257 253 246
0 352 359 357 354 352 346 343 338 335 332 315 298 299 299 295 299 303 299 301 301 299 296 300 270 263 263 253 255 257 238 225 228 221 233 240 239 246 255 254 252 245 240
356 349 353 348 345 342 339 333 331 333 330 319 312 303 298 300 287 287 285 292 296 303 305 290 293 281 273 256 240 247 242 227 230 230 235 241 246 249 251 247 239 239 237
349 348 349 351 351 346 340 334 332 315 315 312 313 309 300 300 296 290 286 285 300 296 307 300 318 316 294 267 243 238 234 236 242 248 248 246 247 246 244 236 235 235 235
355 350 355 350 347 342 340 334 320 304 309 307 305 299 295 282 288 284 291 291 281 305 342 331 337 349 311 220 196 168 199 237 252 254 250 250 246 244 236 231 232 229 228
352 351 348 348 347 342 337 332 333 336 333 329 321 308 283 279 273 282 278 279 286 274 288 4 1 349 104 177 179 239 242 268 267 262 260 249 252 248 236 232 233 225 221
353 353 348 350 352 339 346 357 357 353 350 346 333 319 294 290 234 284 263 291 298 275 255 8 355 15 1 217 311 258 258 276 275 273 268 251 258 244 237 234 231 222 218
3 356 5 4 348 12 9 11 6 5 10 6 9 352 313 262 194 282 303 277 303 66 107 94 67 22 355 133 115 235 274 271 233 245 235 264 235 227 227 229 227 217 211
8 13 13 3 11 18 19 16 15 14 16 19 21 28 34 83 216 335 294 262 123 94 72 83 76 27 86 84 66 71 74 104 127 120 109 173 177 162 186 197 193 191 193
14 17 15 6 15 16 25 24 23 26 22 24 29 31 42 63 33 339 7 242 157 96 87 82 84 73 64 61 106 101 67 54 65 92 88 86 126 128 108 129 140 161 171
13 21 12 11 25 21 25 26 25 28 30 29 35 38 54 52 62 62 89 93 126 86 78 106 100 86 86 108 125 113 127 128 119 97 82 82 80 87 97 118 124 151 166
14 25 16 25 21 22 24 26 28 41 43 40 41 46 60 65 63 72 79 85 101 92 98 96 100 101 96 100 106 117 125 117 89 89 89 93 90 83 85 82 87 155 155
22 29 24 25 24 25 26 31 41 45 43 49 49 55 63 61 56 63 82 90 90 90 100 94 101 94 103 90 96 105 102 104 90 86 88 85 92 89 87 93 93 91 97
24 32 29 25 22 24 30 41 46 41 53 52 57 55 58 57 68 90 95 91 89 87 70 57 82 103 122 78 98 119 120 99 96 70 79 84 84 84 84 91 101 106 105
19 33 33 32 35 27 39 53 63 58 67 66 66 70 65 67 70 64 73 77 69 81 60 60 84 88 104 91 95 91 95 99 89 84 77 98 89 89 81 82 83 96 109
18 32 41 44 39 36 54 74 73 74 70 63 60 64 65 59 55 62 61 56 47 64 64 66 79 83 86 87 86 77 71 75 84 87 107 101 80 79 76 71 79 95 98
Wind_Speed_850mb
37 34 26 22 23 23 21 22 24 26 26 25 24 23 24 23 24 25 30 44 60 57 48 46 38 43 55 57 56 55 51 48 44 40 35 29 31 34 39 42 39 37 40
30 27 31 22 22 22 23 26 28 31 32 34 34 34 28 31 32 30 34 39 56 63 60 49 46 42 48 60 61 58 59 57 52 46 40 33 30 33 38 44 44 42 41
28 29 30 26 26 32 37 31 31 31 31 38 40 39 37 37 33 35 35 39 38 43 53 60 48 47 46 53 65 63 62 64 58 53 45 36 31 28 33 42 45 46 44
26 25 25 31 28 35 32 30 31 32 37 41 41 39 38 38 40 41 44 45 46 41 42 41 58 47 47 52 62 68 65 69 65 57 52 41 35 29 32 34 42 47 47
32 36 30 33 40 29 29 32 27 30 34 39 38 39 38 37 42 49 50 49 44 35 37 38 48 49 37 48 59 70 68 68 71 61 56 48 39 30 27 31 32 36 47
30 33 24 30 32 31 28 28 33 29 28 32 36 41 44 46 43 46 44 43 40 37 36 33 34 28 37 42 51 63 64 66 67 65 61 54 46 37 31 28 28 34 35
26 29 25 30 23 23 18 17 20 27 27 29 36 48 49 48 46 39 29 31 30 32 30 27 25 23 23 32 34 50 60 58 66 68 63 60 55 45 38 33 31 38 40
25 22 23 20 23 23 27 21 25 30 35 37 38 43 48 37 23 7 16 30 35 32 33 35 21 26 28 28 22 34 57 50 57 63 62 62 61 51 44 35 34 33 41
25 27 26 26 27 26 28 29 29 30 32 32 30 31 26 17 24 30 24 31 34 30 25 17 22 30 32 28 20 19 43 57 59 57 62 67 62 56 49 46 43 40 43
29 28 26 24 23 21 22 24 26 27 26 26 24 19 21 29 25 26 24 21 27 26 26 23 23 24 27 32 21 28 28 46 55 59 58 59 61 54 48 50 50 50 50
31 31 31 30 27 24 23 22 23 22 21 25 22 26 25 24 24 21 25 27 27 24 25 28 28 29 31 34 25 19 20 35 37 38 49 47 49 47 51 53 54 52 51
29 33 32 32 30 27 27 26 26 23 21 19 20 22 24 25 25 17 19 25 28 30 20 23 21 28 25 38 37 22 20 23 30 37 41 43 44 51 54 52 51 47 47
34 37 37 35 32 32 31 31 29 28 28 27 28 26 27 26 24 24 24 24 25 20 19 15 21 17 18 21 30 23 26 22 28 36 40 42 45 47 48 47 47 48 48
32 35 33 31 31 31 32 31 28 24 28 31 32 29 32 26 23 20 20 19 21 17 15 10 13 14 13 14 13 15 24 24 25 29 33 40 41 43 44 43 46 48 49
30 29 29 30 32 33 36 36 28 34 39 40 42 36 37 26 23 18 17 15 14 11 8 10 10 21 5 3 8 14 10 17 25 27 31 30 33 36 40 45 42 42 41
30 28 32 36 37 41 38 37 35 31 30 31 33 32 26 27 24 21 17 15 12 12 7 10 15 18 5 8 6 8 11 15 22 25 27 28 29 36 41 45 45 44 40
30 30 34 36 39 36 34 28 30 27 30 30 31 27 19 20 16 14 10 10 11 8 4 4 8 8 10 12 8 7 9 13 14 18 19 23 25 29 33 40 43 47 45
27 30 39 36 37 33 32 33 33 28 35 36 37 26 12 5 7 9 9 7 4 2 7 12 10 7 7 5 5 2 7 11 11 13 10 25 14 16 22 27 37 42 45
30 36 40 39 30 35 35 36 30 28 31 36 37 33 21 8 2 11 9 5 1 7 10 10 11 8 8 13 16 18 19 15 27 31 20 6 13 13 13 13 21 38 44
34 37 35 37 29 34 35 35 34 34 33 31 30 33 24 15 15 14 8 6 9 12 14 13 12 12 12 12 12 25 15 32 44 74 74 58 27 28 23 21 26 35 42
34 37 36 38 31 31 35 36 33 32 35 31 31 29 27 20 18 20 20 18 14 14 12 15 16 16 17 18 24 21 13 17 17 31 65 62 68 58 38 33 28 31 36
33 32 41 43 38 30 30 33 31 35 39 39 35 30 27 27 25 25 17 14 15 16 15 17 18 26 28 33 34 31 39 40 42 36 45 51 56 60 67 68 56 35 31
30 32 42 42 37 33 31 32 28 32 37 43 39 34 34 29 24 19 19 20 19 20 24 25 20 15 15 19 12 16 22 36 43 43 46 49 49 53 50 49 50 51 61
32 31 41 41 36 34 33 31 26 28 31 36 38 38 40 40 33 30 31 32 27 24 19 12 10 13 14 22 17 20 20 27 32 35 33 54 46 52 47 46 41 44 40
27 26 38 37 36 32 33 31 34 36 42 46 43 45 38 45 50 45 41 43 40 35 37 28 23 23 27 24 35 35 28 27 30 29 27 48 45 49 49 51 48 38 40
22 19 30 35 37 36 32 29 34 31 33 33 42 41 38 34 33 28 22 20 27 20 27 32 37 41 38 30 23 19 13 16 19 19 22 34 28 30 37 37 35 41 46
Wind_Direction_850mb
290 300 297 276 266 263 270 266 275 272 271 274 273 275 280 291 295 307 310 312 317 316 311 299 284 269 255 249 243 239 232 229 233 240 240 243 252 246 241 238 232 232 229
285 280 293 274 269 275 274 266 272 267 274 274 275 275 278 285 287 289 297 307 311 310 306 300 289 276 262 249 246 240 234 228 230 232 232 238 247 243 242 240 236 231 229
290 287 289 282 279 284 286 282 279 272 273 275 274 277 281 283 283 288 296 301 300 303 305 302 293 284 269 256 241 240 236 228 228 230 229 233 241 248 239 236 235 234 232
307 292 283 281 280 289 287 283 281 272 273 275 279 279 277 278 283 286 297 295 293 292 286 297 291 290 278 258 243 234 233 232 228 229 226 230 236 245 241 237 234 234 234
307 296 297 291 290 287 279 281 270 274 278 278 280 277 276 276 279 285 289 289 289 287 284 285 290 297 292 265 247 233 228 232 229 230 224 226 231 235 235 235 237 234 233
308 308 314 299 301 295 295 284 286 277 279 284 281 283 285 281 281 290 292 285 283 278 285 278 286 293 290 279 254 238 232 230 229 228 226 224 227 228 235 237 239 240 239
326 315 310 316 322 323 314 313 300 297 294 294 290 290 290 288 278 283 285 286 285 278 277 281 287 284 281 275 266 243 233 232 229 227 226 223 227 230 236 243 249 246 242
348 351 342 334 322 312 309 308 309 301 291 294 295 295 293 290 288 288 258 286 282 275 267 268 279 283 288 281 272 238 229 227 227 225 224 223 226 229 235 240 247 253 249
345 340 335 328 322 321 302 304 299 294 294 289 288 286 297 291 298 287 280 282 279 269 264 276 286 286 280 280 278 243 223 222 214 216 217 218 224 229 232 243 252 256 254
345 350 349 344 338 338 317 316 307 294 296 291 289 288 286 290 294 296 284 292 283 288 278 273 269 282 285 277 274 254 225 215 218 222 220 216 221 225 237 248 255 257 253
357 358 1 358 353 351 341 340 336 318 304 292 298 295 290 294 297 281 291 301 305 299 281 273 277 268 276 259 269 262 216 213 206 219 227 225 221 237 248 254 257 253 246
0 352 359 357 354 352 346 343 338 335 332 315 298 299 299 295 299 303 299 301 301 299 296 300 270 263 263 253 255 257 238 225 228 221 233 240 239 246 255 254 252 245 240
356 349 353 348 345 342 339 333 331 333 330 319 312 303 298 300 287 287 285 292 296 303 305 290 293 281 273 256 240 247 242 227 230 230 235 241 246 249 251 247 239 239 237
349 348 349 351 351 346 340 334 332 315 315 312 313 309 300 300 296 290 286 285 300 296 307 300 318 316 294 267 243 238 234 236 242 248 248 246 247 246 244 236 235 235 235
355 350 355 350 347 342 340 334 320 304 309 307 305 299 295 282 288 284 291 291 281 305 342 331 337 349 311 220 196 168 199 237 252 254 250 250 246 244 236 231 232 229 228
352 351 348 348 347 342 337 332 333 336 333 329 321 308 283 279 273 282 278 279 286 274 288 4 1 349 104 177 179 239 242 268 267 262 260 249 252 248 236 232 233 225 221
353 353 348 350 352 339 346 357 357 353 350 346 333 319 294 290 234 284 263 291 298 275 255 8 355 15 1 217 311 258 258 276 275 273 268 251 258 244 237 234 231 222 218
3 356 5 4 348 12 9 11 6 5 10 6 9 352 313 262 194 282 303 277 303 66 107 94 67 22 355 133 115 235 274 271 233 245 235 264 235 227 227 229 227 217 211
8 13 13 3 11 18 19 16 15 14 16 19 21 28 34 83 216 335 294 262 123 94 72 83 76 27 86 84 66 71 74 104 127 120 109 173 177 162 186 197 193 191 193
14 17 15 6 15 16 25 24 23 26 22 24 29 31 42 63 33 339 7 242 157 96 87 82 84 73 64 61 106 101 67 54 65 92 88 86 126 128 108 129 140 161 171
13 21 12 11 25 21 25 26 25 28 30 29 35 38 54 52 62 62 89 93 126 86 78 106 100 86 86 108 125 113 127 128 119 97 82 82 80 87 97 118 124 151 166
14 25 16 25 21 22 24 26 28 41 43 40 41 46 60 65 63 72 79 85 101 92 98 96 100 101 96 100 106 117 125 117 89 89 89 93 90 83 85 82 87 155 155
22 29 24 25 24 25 26 31 41 45 43 49 49 55 63 61 56 63 82 90 90 90 100 94 101 94 103 90 96 105 102 104 90 86 88 85 92 89 87 93 93 91 97
24 32 29 25 22 24 30 41 46 41 53 52 57 55 58 57 68 90 95 91 89 87 70 57 82 103 122 78 98 119 120 99 96 70 79 84 84 84 84 91 101 106 105
19 33 33 32 35 27 39 53 63 58 67 66 66 70 65 67 70 64 73 77 69 81 60 60 84 88 104 91 95 91 95 99 89 84 77 98 89 89 81 82 83 96 109
18 32 41 44 39 36 54 74 73 74 70 63 60 64 65 59 55 62 61 56 47 64 64 66 79 83 86 87 86 77 71 75 84 87 107 101 80 79 76 71 79 95 98